Weather History for Kirksville, MO

Change the Weather History Date:

Sunday, January 6, 2013

  Actual Average Record
Temperature  
Mean Temperature 27 °F 26 °F  
Max Temperature 35 °F 35 °F 80 °F (2008)
Min Temperature 18 °F 17 °F -14 °F (1924)
Degree Days  
Heating Degree Days 38 39  
Month to date heating degree days 258 234  
Since 1 July heating degree days 2500 2577  
Moisture  
Dew Point 18 °F    
Average Humidity 64    
Maximum Humidity 81    
Minimum Humidity 47    
Precipitation  
Precipitation 0.00 in 0.03 in 1.19 in (1998)
Month to date precipitation 0.06 0.20  
Year to date precipitation 0.06 0.20  
Sea Level Pressure  
Sea Level Pressure 30.26 in    
Wind  
Wind Speed 9 mph (West)    
Max Wind Speed 20 mph    
Max Gust Speed 25 mph    
Visibility 9 miles    
Events      
T = Trace of Precipitation, MM = Missing Value Source: NWS Daily Summary

Daily Weather History Graph

Daily Weather History Graph

Search for Another Location

Airport:

Trip Planner

Search our weather history database for the weather conditions in past years. The results will help you decide how hot, cold, wet, or windy it might be!

Date:

Astronomy

Jan. 06, 2013 Rise Set
Actual Time 7:32 AM CST 5:00 PM CST
Civil Twilight 7:02 AM CST 5:30 PM CST
Nautical Twilight 6:28 AM CST 6:04 PM CST
Astronomical Twilight 5:55 AM CST 6:37 PM CST
Moon 1:47 AM CST (1/6) 12:27 PM CST (1/6)
Length of Visible Light 10h 28m
Length of Day
9h 27m
Waning Crescent, 33% of the Moon is Illuminated
Jan 6
Waning Crescent
Jan 11
New
Jan 18
First Quarter
Jan 26
Full
Feb 3
Last Quarter

Hourly Weather History & Observations

Time (CST) Temp. Windchill Dew Point Humidity Pressure Visibility Wind Dir Wind Speed Gust Speed Precip Events Conditions
12:06 AM 30.2 °F 24.3 °F 21.2 °F 69% 30.07 in 10.0 mi West 5.8 mph - N/A   Overcast
12:37 AM 30.2 °F 23.4 °F 21.2 °F 69% 30.07 in 10.0 mi West 6.9 mph - N/A   Overcast
12:55 AM 28.9 °F 19.2 °F 21.9 °F 75% 30.12 in 10.0 mi West 11.5 mph 17.3 mph N/A   Mostly Cloudy
1:08 AM 28.4 °F 18.5 °F 23.0 °F 80% 30.08 in 10.0 mi West 11.5 mph - N/A   Mostly Cloudy
1:55 AM 28.9 °F 16.9 °F 21.9 °F 75% 30.13 in 10.0 mi WNW 17.3 mph 25.3 mph N/A   Overcast
2:55 AM 27.0 °F 17.3 °F 19.0 °F 72% 30.15 in 10.0 mi NW 10.4 mph 17.3 mph N/A   Overcast
3:55 AM 27.0 °F 16.7 °F 21.0 °F 78% 30.18 in 7.0 mi NW 11.5 mph 20.7 mph N/A   Overcast
4:15 AM 26.6 °F 15.7 °F 19.4 °F 74% 30.15 in 8.0 mi NW 12.7 mph - N/A   Overcast
4:55 AM 25.0 °F 14.8 °F 19.0 °F 78% 30.20 in 7.0 mi NW 10.4 mph - N/A   Overcast
5:55 AM 24.8 °F 12.9 °F 17.6 °F 74% 30.19 in 7.0 mi NW 13.8 mph 19.6 mph N/A   Overcast
6:55 AM 21.0 °F 8.1 °F 16.0 °F 81% 30.26 in 7.0 mi WNW 13.8 mph - N/A   Overcast
7:24 AM 19.4 °F 5.5 °F 12.2 °F 74% 30.24 in 9.0 mi WNW 15.0 mph 21.9 mph N/A   Scattered Clouds
7:55 AM 18.0 °F 6.1 °F 12.0 °F 78% 30.30 in 9.0 mi WNW 10.4 mph - N/A   Clear
8:55 AM 19.9 °F 7.3 °F 14.0 °F 78% 30.32 in 10.0 mi WNW 12.7 mph - N/A   Clear
9:55 AM 23.0 °F 11.7 °F 15.1 °F 72% 30.34 in 10.0 mi WNW 11.5 mph - N/A   Clear
10:55 AM 26.1 °F 17.6 °F 17.1 °F 69% 30.35 in 10.0 mi West 8.1 mph - N/A   Clear
11:55 AM 28.9 °F 19.8 °F 16.0 °F 58% 30.35 in 10.0 mi WNW 10.4 mph - N/A   Clear
12:55 PM 30.9 °F 24.3 °F 16.0 °F 54% 30.32 in 10.0 mi West 6.9 mph - N/A   Clear
1:55 PM 33.1 °F 24.9 °F 16.0 °F 50% 30.32 in 10.0 mi West 10.4 mph - N/A   Clear
2:55 PM 34.0 °F 28.0 °F 16.0 °F 48% 30.34 in 10.0 mi West 6.9 mph - N/A   Clear
3:55 PM 34.0 °F 27.2 °F 16.0 °F 48% 30.35 in 10.0 mi West 8.1 mph - N/A   Clear
4:55 PM 30.9 °F 25.2 °F 17.1 °F 57% 30.35 in 10.0 mi SW 5.8 mph - N/A   Clear
5:55 PM 28.9 °F 23.9 °F 17.1 °F 61% 30.36 in 10.0 mi WSW 4.6 mph - N/A   Clear
6:55 PM 26.1 °F 20.5 °F 17.1 °F 69% 30.38 in 10.0 mi SW 4.6 mph - N/A   Clear
7:55 PM 24.1 °F 19.7 °F 17.1 °F 75% 30.38 in 10.0 mi SW 3.5 mph - N/A   Clear
9:55 PM 23.0 °F 15.8 °F 17.1 °F 78% 30.36 in 10.0 mi SSW 5.8 mph - N/A   Clear
10:55 PM 23.0 °F 15.8 °F 17.1 °F 78% 30.35 in 10.0 mi SSW 5.8 mph - N/A   Clear
11:55 PM 21.9 °F 15.7 °F 17.1 °F 82% 30.34 in 10.0 mi SSW 4.6 mph - N/A   Clear